This demonstration page uses our WeatherBlox Daily Observations layout. Learn more.

Left ArrowRight Arrow

Hourly Observations for April 6, 2015

Temp ( °F °C ) Dew Point ( °F °C ) Humidity (%) Winds ( mph kmh ) Pressure ( in mb ) Visibility ( mi km ) Precip ( " mm )
12:16 am 00:16 Clear 48 9 12 -11 23 23 S 5 7 30.12 1020 10 16.0934 N/A
12:35 am 00:35 Clear 48 9 12 -11 23 23 S 6 9 30.12 1020 10 16.0934 N/A
12:56 am 00:56 Clear 46 8 14 -10 27 27 S 5 7 30.12 1020 10 16.0934 N/A
1:15 am 01:15 Clear 45 7 16 -9 31 31 SSE 3 6 30.12 1020 10 16.0934 N/A
1:36 am 01:36 Clear 41 5 19 -7 42 42 ESE 3 6 30.12 1020 10 16.0934 N/A
1:56 am 01:56 Clear 41 5 23 -5 49 49 SE 6 9 30.12 1020 10 16.0934 N/A
2:16 am 02:16 Clear 45 7 19 -7 37 37 SSE 6 9 30.12 1020 10 16.0934 N/A
2:36 am 02:36 Partly Cloudy 45 7 18 -8 34 34 SSE 6 9 30.12 1020 10 16.0934 N/A
2:56 am 02:56 Mostly Cloudy 46 8 18 -8 32 32 SSE 5 7 30.12 1020 10 16.0934 N/A
3:15 am 03:15 Mostly Cloudy 48 9 16 -9 27 27 S 6 9 30.12 1020 10 16.0934 N/A
3:36 am 03:36 Mostly Cloudy 48 9 19 -7 32 32 S 5 7 30.12 1020 10 16.0934 N/A
3:56 am 03:56 Mostly Cloudy 48 9 21 -6 34 34 S 6 9 30.12 1020 10 16.0934 N/A
4:15 am 04:15 Mostly Cloudy 48 9 21 -6 34 34 S 6 9 30.09 1019 10 16.0934 N/A
4:36 am 04:36 Partly Cloudy 48 9 21 -6 34 34 S 7 11 30.09 1019 10 16.0934 N/A
4:56 am 04:56 Partly Cloudy 48 9 23 -5 37 37 S 6 9 30.09 1019 10 16.0934 N/A
5:16 am 05:16 Mostly Cloudy 48 9 25 -4 40 40 S 6 9 30.09 1019 10 16.0934 N/A
5:36 am 05:36 Mostly Cloudy 50 10 25 -4 37 37 S 6 9 30.09 1019 10 16.0934 N/A
5:55 am 05:55 Mostly Cloudy 50 10 25 -4 37 37 S 6 9 30.09 1019 10 16.0934 N/A
6:16 am 06:16 Mostly Cloudy 50 10 25 -4 37 37 S 8 13 30.09 1019 10 16.0934 N/A
6:36 am 06:36 Mostly Cloudy 50 10 25 -4 37 37 S 7 11 30.09 1019 10 16.0934 N/A
6:55 am 06:55 Cloudy 50 10 27 -3 40 40 S 7 11 30.09 1019 10 16.0934 N/A
7:16 am 07:16 Cloudy 50 10 27 -3 40 40 S 7 11 30.09 1019 10 16.0934 N/A
7:36 am 07:36 Mostly Cloudy 50 10 27 -3 40 40 S 8 13 30.12 1020 10 16.0934 N/A
7:55 am 07:55 Cloudy 50 10 27 -3 40 40 S 7 11 30.12 1020 10 16.0934 N/A
8:16 am 08:16 Cloudy 50 10 28 -2 43 43 S 7 11 30.12 1020 10 16.0934 N/A
8:36 am 08:36 Cloudy 52 11 28 -2 41 41 S 7 11 30.12 1020 10 16.0934 N/A
8:55 am 08:55 Mostly Cloudy 52 11 28 -2 41 41 S 6 9 30.12 1020 10 16.0934 N/A
9:16 am 09:16 Mostly Cloudy 54 12 28 -2 38 38 SSW 8 13 30.12 1020 10 16.0934 N/A
9:36 am 09:36 Mostly Cloudy 55 13 27 -3 33 33 S 9 15 30.09 1019 10 16.0934 N/A
9:56 am 09:56 Mostly Cloudy 55 13 27 -3 33 33 S 8 13 30.09 1019 10 16.0934 N/A
10:16 am 10:16 Mostly Cloudy 55 13 27 -3 33 33 SSW 8 13 30.09 1019 10 16.0934 N/A
10:35 am 10:35 Cloudy 57 14 28 -2 33 33 SSW 10 17 30.09 1019 10 16.0934 N/A
10:56 am 10:56 Mostly Cloudy 57 14 27 -3 31 31 SSW 9 15 30.09 1019 10 16.0934 N/A
11:16 am 11:16 Mostly Cloudy 57 14 28 -2 33 33 S 9 15 30.09 1019 10 16.0934 N/A
11:35 am 11:35 Mostly Cloudy 59 15 30 -1 34 34 S 12 19 30.09 1019 10 16.0934 N/A
11:56 am 11:56 Mostly Cloudy 61 16 30 -1 31 31 SSW 14 22 30.09 1019 10 16.0934 N/A
12:16 pm 12:16 Partly Cloudy 61 16 30 -1 31 31 SSW 13 20 30.06 1018 10 16.0934 N/A
12:35 pm 12:35 Partly Cloudy 61 16 28 -2 29 29 SSW 16 26 30.06 1018 10 16.0934 N/A
12:56 pm 12:56 Mostly Cloudy 61 16 30 -1 31 31 SSW 13 20 30.06 1018 10 16.0934 N/A
1:16 pm 13:16 Cloudy 59 15 32 0 36 36 SSW 16 26 30.06 1018 10 16.0934 N/A
1:35 pm 13:35 Cloudy 59 15 34 1 39 39 SSW 12 19 30.06 1018 10 16.0934 N/A
1:56 pm 13:56 Cloudy 59 15 36 2 42 42 SSW 13 20 30.06 1018 10 16.0934 N/A
2:16 pm 14:16 Cloudy 59 15 37 3 45 45 SSW 15 24 30.06 1018 10 16.0934 N/A
2:35 pm 14:35 Mostly Cloudy 59 15 39 4 48 48 SSW 13 20 30.06 1018 10 16.0934 N/A
2:56 pm 14:56 Mostly Cloudy 59 15 39 4 48 48 SSW 12 19 30.06 1018 10 16.0934 N/A
3:16 pm 15:16 Mostly Cloudy 59 15 39 4 48 48 SW 10 17 30.06 1018 10 16.0934 N/A
3:35 pm 15:35 Cloudy 59 15 39 4 48 48 SW 12 19 30.03 1017 10 16.0934 N/A
3:56 pm 15:56 Mostly Cloudy 61 16 39 4 45 45 SSW 10 17 30.03 1017 10 16.0934 N/A
4:16 pm 16:16 Mostly Cloudy 59 15 41 5 51 51 SSW 13 20 30.03 1017 10 16.0934 N/A
4:35 pm 16:35 Cloudy 57 14 45 7 63 63 SW 10 17 30.03 1017 10 16.0934 N/A
4:56 pm 16:56 Cloudy 57 14 45 7 63 63 SSW 8 13 30.03 1017 10 16.0934 N/A
5:16 pm 17:16 Mostly Cloudy 59 15 43 6 55 55 SSW 9 15 30.03 1017 10 16.0934 N/A
5:36 pm 17:36 Mostly Cloudy 59 15 43 6 55 55 S 14 22 30.03 1017 10 16.0934 N/A
5:56 pm 17:56 Mostly Cloudy 59 15 45 7 59 59 SSW 14 22 30.03 1017 10 16.0934 N/A
6:15 pm 18:15 Mostly Cloudy 59 15 46 8 63 63 S 9 15 30 1016 10 16.0934 N/A
6:36 pm 18:36 Mostly Cloudy 59 15 46 8 63 63 S 12 19 30 1016 10 16.0934 N/A
6:56 pm 18:56 Mostly Cloudy 57 14 46 8 67 67 S 10 17 30 1016 10 16.0934 N/A
7:15 pm 19:15 Cloudy 57 14 46 8 67 67 SW 8 13 30 1016 10 16.0934 N/A
7:36 pm 19:36 Cloudy 57 14 46 8 67 67 SW 6 9 30.03 1017 10 16.0934 N/A
7:56 pm 19:56 Cloudy 57 14 46 8 67 67 Calm 30.03 1017 10 16.0934 N/A
8:15 pm 20:15 Cloudy 57 14 46 8 67 67 SE 3 6 30.03 1017 10 16.0934 N/A
8:36 pm 20:36 Cloudy 55 13 48 9 77 77 ESE 5 7 30.03 1017 10 16.0934 N/A
8:56 pm 20:56 Cloudy 55 13 48 9 77 77 SE 5 7 30.03 1017 10 16.0934 N/A
9:15 pm 21:15 Cloudy 55 13 50 10 82 82 S 6 9 30.03 1017 10 16.0934 N/A
9:36 pm 21:36 Cloudy 55 13 55 13 100 100 S 3 6 30.03 1017 10 16.0934 N/A
9:56 pm 21:56 Cloudy 55 13 55 13 100 100 SSE 5 7 30.03 1017 10 16.0934 N/A
10:15 pm 22:15 Cloudy 55 13 55 13 100 100 S 5 7 30.03 1017 10 16.0934 N/A
10:36 pm 22:36 Cloudy 55 13 54 12 94 94 SSE 5 7 30.03 1017 10 16.0934 N/A
10:55 pm 22:55 Mostly Cloudy 57 14 50 10 77 77 SSE 6 9 30.03 1017 10 16.0934 N/A
11:16 pm 23:16 Mostly Cloudy 55 13 50 10 82 82 SSE 6 9 30.03 1017 10 16.0934 N/A
11:36 pm 23:36 Mostly Cloudy 55 13 50 10 82 82 SSE 6 9 30.03 1017 10 16.0934 N/A
11:55 pm 23:55 Mostly Cloudy 55 13 48 9 77 77 SSE 6 9 30.03 1017 10 16.0934 N/A

Powered by AerisWeather